Regional Weather Roundup
Issued by NWS

Home | Current Version | Previous Version | Graphics & Text | Print | Product List | Glossary On
Versions: 1 2 3 4 5 6 7 8 9 10 11 12 13 14 15 16 17 18 19 20 21 22 23 24 25 26 27 28 29 30 31 32 33 34 35 36 37 38 39 40 41 42 43 44 45 46 47 48 49 50
000
ASUS43 KBIS 141202
RWRND

NORTH DAKOTA REGIONAL WEATHER ROUNDUP
NATIONAL WEATHER SERVICE BISMARCK ND
600 AM CST THU DEC 14 2017

NOTE: "FAIR" INDICATES FEW OR NO CLOUDS BELOW 12,000 FEET WITH NO
SIGNIFICANT WEATHER AND/OR OBSTRUCTIONS TO VISIBILITY.


NDZ001>003-009>011-017-141300-
NORTHWEST NORTH DAKOTA

CITY           SKY/WX    TMP DP  RH WIND       PRES   REMARKS
WILLISTON      CLOUDY    34  27  75 N15       30.11R
6HR MIN TEMP:  31; 6HR MAX TEMP:  36;

MINOT          CLOUDY    32  28  85 NW20G26   30.01R
MINOT AFB      CLOUDY    31  27  82 N16       30.01R
$$

NDZ018>021-031>035-040>046-141300-
SOUTHWEST NORTH DAKOTA

CITY           SKY/WX    TMP DP  RH WIND       PRES   REMARKS
BISMARCK       CLOUDY    35  30  82 NW12      29.99R
6HR MIN TEMP:  26; 6HR MAX TEMP:  35; 6HR PCP: TRACE;

DICKINSON      CLOUDY    31  27  85 NW21      30.02R WCI  18
GARRISON         N/A     32  28  85 NW17      30.01R
6HR MIN TEMP:  26; 6HR MAX TEMP:  33;

HETTINGER ARPT CLOUDY    32  27  81 NW24G33   30.05R WCI  19
$$

NDZ004>008-012>016-024-026-027-054-141300-
NORTHEAST NORTH DAKOTA

CITY           SKY/WX    TMP DP  RH WIND       PRES   REMARKS
GRAND FORKS    FLURRIES  19  16  88 CALM      29.99R
GRND FRKS AFB  FLURRIES  21  18  86 N5        29.99S WCI  15
DEVILS LAKE    CLOUDY    22  20  92 CALM      29.97R
$$

NDZ022-023-025-028>030-036>039-047>053-141300-
SOUTHEAST NORTH DAKOTA

CITY           SKY/WX    TMP DP  RH WIND       PRES   REMARKS
FARGO          CLOUDY    20  15  81 SW6       30.00S WCI  12
6HR MIN TEMP:  18; 6HR MAX TEMP:  20;

JAMESTOWN      CLOUDY    27  26  96 CALM      29.94R
$$





USA.gov is the U.S. government's official web portal to all federal, state and local government web resources and services.